QPF
0.00 0.00 0.00 0.00 0.00 0.00 0.00 0.00 0.00 0.00 0.00 0.00 0.00 0.00 0.00 0.00 0.00 0.00 0.00 0.00 0.00 0.00 0.00 0.00 0.00 0.00 0.00 0.00 0.00 0.00 0.00 0.00 0.00 0.00 0.00 0.00 0.00 0.00 0.00 0.00 0.00 0.00 0.00 0.00 0.00 0.00 0.00 0.00 0.00
0.00 0.00 0.00 0.00 0.00 0.00 0.00 0.00 0.00 0.00 0.01 0.00 0.00 0.00 0.00 0.00 0.00 0.00 0.00 0.00 0.00 0.00 0.00 0.00 0.00 0.00 0.00 0.00 0.00 0.00 0.00 0.00 0.00 0.00 0.00 0.00 0.00 0.00 0.00 0.00 0.00 0.00 0.00 0.00 0.00 0.00 0.00 0.00 0.00
0.00 0.00 0.00 0.00 0.00 0.00 0.00 0.00 0.00 0.00 0.00 0.00 0.00 0.00 0.00 0.00 0.00 0.00 0.00 0.00 0.00 0.00 0.00 0.00 0.00 0.00 0.00 0.00 0.00 0.00 0.00 0.00 0.00 0.00 0.00 0.00 0.00 0.00 0.00 0.00 0.00 0.00 0.00 0.00 0.00 0.00 0.00 0.00 0.00
0.00 0.00 0.00 0.00 0.00 0.00 0.00 0.00 0.00 0.00 0.00 0.00 0.00 0.00 0.00 0.00 0.00 0.00 0.00 0.00 0.00 0.00 0.00 0.00 0.00 0.00 0.00 0.00 0.00 0.00 0.00 0.00 0.00 0.00 0.00 0.00 0.00 0.00 0.00 0.00 0.00 0.00 0.00 0.00 0.00 0.00 0.00 0.00 0.00
0.00 0.00 0.00 0.00 0.00 0.00 0.00 0.00 0.00 0.00 0.00 0.00 0.00 0.00 0.00 0.00 0.00 0.00 0.00 0.00 0.00 0.00 0.00 0.00 0.00 0.00 0.00 0.00 0.00 0.00 0.00 0.00 0.00 0.00 0.00 0.00 0.00 0.00 0.00 0.00 0.00 0.00 0.00 0.00 0.00 0.00 0.00 0.00 0.00
0.00 0.00 0.00 0.00 0.00 0.00 0.00 0.00 0.00 0.00 0.00 0.00 0.00 0.00 0.00 0.00 0.00 0.00 0.00 0.00 0.00 0.00 0.00 0.00 0.00 0.00 0.00 0.00 0.00 0.00 0.00 0.00 0.00 0.00 0.00 0.00 0.00 0.00 0.00 0.00 0.00 0.00 0.00 0.00 0.00 0.00 0.00 0.00 0.00
0.00 0.00 0.00 0.00 0.00 0.00 0.00 0.00 0.00 0.00 0.00 0.00 0.00 0.00 0.00 0.00 0.00 0.00 0.00 0.00 0.00 0.00 0.00 0.00 0.00 0.00 0.00 0.00 0.00 0.00 0.00 0.00 0.00 0.00 0.00 0.00 0.00 0.00 0.00 0.00 0.00 0.00 0.00 0.00 0.00 0.00 0.00 0.00 0.00
0.00 0.00 0.00 0.00 0.00 0.00 0.00 0.00 0.00 0.00 0.00 0.00 0.00 0.00 0.00 0.00 0.00 0.00 0.00 0.00 0.00 0.00 0.00 0.00 0.00 0.00 0.00 0.00 0.00 0.00 0.00 0.00 0.00 0.00 0.00 0.00 0.00 0.00 0.00 0.00 0.00 0.00 0.00 0.00 0.00 0.00 0.00 0.00 0.00
0.00 0.00 0.00 0.00 0.00 0.00 0.00 0.00 0.00 0.00 0.00 0.00 0.00 0.00 0.00 0.00 0.00 0.00 0.00 0.00 0.00 0.00 0.00 0.00 0.00 0.00 0.00 0.00 0.00 0.00 0.00 0.00 0.00 0.00 0.00 0.00 0.00 0.00 0.00 0.00 0.00 0.00 0.00 0.00 0.00 0.00 0.00 0.00 0.00
0.00 0.00 0.00 0.00 0.00 0.00 0.00 0.00 0.00 0.00 0.00 0.00 0.00 0.00 0.00 0.00 0.00 0.00 0.00 0.00 0.00 0.00 0.00 0.00 0.00 0.00 0.00 0.00 0.00 0.00 0.00 0.00 0.00 0.00 0.00 0.00 0.00 0.00 0.00 0.00 0.00 0.00 0.00 0.00 0.00 0.00 0.00 0.00 0.00
0.00 0.00 0.00 0.00 0.00 0.00 0.00 0.00 0.00 0.00 0.00 0.00 0.00 0.00 0.00 0.00 0.00 0.00 0.00 0.00 0.00 0.00 0.00 0.00 0.00 0.00 0.00 0.00 0.00 0.00 0.00 0.00 0.00 0.00 0.00 0.00 0.00 0.00 0.00 0.00 0.00 0.00 0.00 0.00 0.00 0.00 0.00 0.00 0.00
0.00 0.00 0.00 0.00 0.00 0.00 0.00 0.00 0.00 0.00 0.00 0.00 0.00 0.00 0.00 0.00 0.00 0.00 0.00 0.00 0.00 0.00 0.00 0.00 0.00 0.00 0.00 0.00 0.00 0.00 0.00 0.00 0.00 0.00 0.00 0.00 0.00 0.00 0.00 0.00 0.00 0.00 0.00 0.00 0.00 0.00 0.00 0.00 0.00
0.00 0.00 0.00 0.00 0.00 0.00 0.00 0.00 0.00 0.00 0.00 0.00 0.00 0.00 0.00 0.00 0.00 0.00 0.00 0.00 0.00 0.00 0.00 0.00 0.00 0.00 0.00 0.00 0.00 0.00 0.00 0.00 0.00 0.00 0.00 0.00 0.00 0.00 0.00 0.00 0.00 0.00 0.00 0.00 0.00 0.00 0.00 0.00 0.00
0.00 0.00 0.00 0.00 0.00 0.00 0.00 0.00 0.00 0.00 0.00 0.00 0.00 0.00 0.00 0.00 0.00 0.00 0.00 0.00 0.00 0.00 0.00 0.00 0.00 0.00 0.00 0.00 0.00 0.00 0.00 0.00 0.00 0.00 0.00 0.00 0.00 0.00 0.00 0.00 0.00 0.00 0.00 0.00 0.00 0.00 0.00 0.00 0.00
0.00 0.00 0.00 0.00 0.00 0.00 0.00 0.00 0.00 0.00 0.00 0.00 0.00 0.00 0.00 0.00 0.00 0.00 0.00 0.00 0.00 0.00 0.00 0.00 0.00 0.00 0.00 0.00 0.00 0.00 0.00 0.00 0.00 0.00 0.00 0.00 0.00 0.00 0.00 0.00 0.00 0.00 0.00 0.00 0.00 0.00 0.00 0.00 0.00
0.00 0.00 0.00 0.00 0.00 0.00 0.00 0.00 0.00 0.00 0.00 0.00 0.00 0.00 0.00 0.00 0.00 0.00 0.00 0.00 0.00 0.00 0.00 0.00 0.00 0.00 0.00 0.00 0.00 0.00 0.00 0.00 0.00 0.00 0.00 0.00 0.00 0.00 0.00 0.00 0.00 0.00 0.02 0.01 0.00 0.00 0.00 0.00 0.00
0.00 0.00 0.00 0.00 0.00 0.00 0.00 0.00 0.00 0.00 0.00 0.00 0.00 0.00 0.00 0.00 0.00 0.00 0.00 0.00 0.00 0.00 0.00 0.00 0.00 0.00 0.00 0.00 0.00 0.00 0.00 0.00 0.00 0.00 0.00 0.00 0.00 0.00 0.00 0.00 0.02 0.07 0.08 0.02 0.00 0.00 0.00 0.00 0.00
0.00 0.00 0.00 0.00 0.00 0.00 0.00 0.00 0.00 0.00 0.00 0.00 0.00 0.00 0.00 0.00 0.00 0.00 0.00 0.00 0.00 0.00 0.00 0.00 0.00 0.00 0.00 0.00 0.00 0.00 0.00 0.00 0.00 0.00 0.00 0.00 0.00 0.00 0.00 0.00 0.03 0.15 0.08 0.03 0.01 0.00 0.00 0.00 0.00
0.00 0.00 0.00 0.00 0.00 0.00 0.00 0.00 0.00 0.00 0.00 0.00 0.00 0.00 0.00 0.00 0.00 0.00 0.00 0.00 0.00 0.00 0.00 0.00 0.00 0.00 0.00 0.00 0.00 0.00 0.00 0.00 0.00 0.00 0.00 0.00 0.00 0.00 0.01 0.04 0.14 0.15 0.07 0.03 0.02 0.00 0.00 0.00 0.00
0.00 0.00 0.00 0.00 0.00 0.00 0.00 0.00 0.00 0.00 0.00 0.00 0.00 0.00 0.00 0.00 0.00 0.00 0.00 0.00 0.00 0.00 0.00 0.00 0.00 0.00 0.00 0.00 0.00 0.00 0.00 0.00 0.00 0.00 0.00 0.00 0.00 0.06 0.17 0.17 0.13 0.12 0.06 0.02 0.00 0.00 0.00 0.00 0.00
0.00 0.00 0.00 0.00 0.00 0.00 0.00 0.00 0.00 0.00 0.00 0.00 0.00 0.00 0.00 0.00 0.00 0.00 0.00 0.00 0.00 0.00 0.00 0.00 0.00 0.01 0.01 0.00 0.01 0.01 0.03 0.01 0.01 0.02 0.00 0.04 0.12 0.31 0.30 0.16 0.09 0.07 0.04 0.00 0.00 0.00 0.00 0.00 0.00
0.00 0.00 0.00 0.00 0.00 0.00 0.00 0.00 0.00 0.00 0.00 0.00 0.00 0.00 0.00 0.00 0.00 0.00 0.00 0.00 0.00 0.00 0.00 0.00 0.00 0.02 0.03 0.02 0.01 0.00 0.03 0.15 0.13 0.13 0.22 0.20 0.18 0.27 0.21 0.05 0.04 0.02 0.01 0.00 0.00 0.00 0.00 0.00 0.00
0.00 0.00 0.00 0.00 0.00 0.00 0.00 0.00 0.00 0.00 0.00 0.00 0.00 0.00 0.00 0.00 0.00 0.00 0.00 0.00 0.00 0.00 0.00 0.00 0.00 0.02 0.02 0.02 0.00 0.03 0.03 0.16 0.24 0.35 0.37 0.17 0.21 0.30 0.23 0.14 0.06 0.00 0.00 0.00 0.00 0.00 0.00 0.00 0.00
0.00 0.00 0.00 0.00 0.00 0.00 0.00 0.00 0.00 0.00 0.00 0.00 0.00 0.00 0.00 0.00 0.00 0.00 0.00 0.00 0.00 0.00 0.00 0.00 0.00 0.00 0.00 0.00 0.00 0.01 0.07 0.16 0.24 0.38 0.28 0.19 0.21 0.24 0.25 0.12 0.03 0.00 0.00 0.00 0.00 0.00 0.00 0.00 0.00
0.00 0.00 0.00 0.00 0.00 0.00 0.00 0.00 0.00 0.00 0.00 0.00 0.00 0.00 0.00 0.00 0.00 0.00 0.00 0.00 0.00 0.00 0.00 0.00 0.00 0.00 0.01 0.07 0.03 0.05 0.09 0.08 0.07 0.14 0.21 0.12 0.27 0.29 0.15 0.03 0.00 0.00 0.00 0.00 0.00 0.00 0.00 0.00 0.00
0.00 0.00 0.00 0.00 0.00 0.00 0.00 0.00 0.00 0.00 0.00 0.00 0.00 0.00 0.00 0.00 0.00 0.00 0.00 0.00 0.00 0.00 0.00 0.00 0.00 0.00 0.03 0.05 0.09 0.11 0.09 0.06 0.06 0.13 0.13 0.13 0.32 0.15 0.05 0.01 0.00 0.00 0.00 0.00 0.00 0.00 0.00 0.00 0.00
0.00 0.00 0.00 0.00 0.00 0.00 0.00 0.00 0.00 0.00 0.00 0.00 0.00 0.00 0.00 0.00 0.00 0.00 0.00 0.00 0.00 0.00 0.00 0.00 0.00 0.00 0.00 0.01 0.02 0.00 0.01 0.05 0.09 0.13 0.17 0.19 0.25 0.13 0.01 0.00 0.00 0.00 0.00 0.00 0.00 0.00 0.00 0.00 0.00
0.00 0.00 0.00 0.00 0.00 0.00 0.00 0.00 0.00 0.00 0.00 0.00 0.00 0.00 0.00 0.00 0.00 0.00 0.00 0.00 0.00 0.00 0.00 0.00 0.00 0.00 0.01 0.05 0.01 0.00 0.02 0.05 0.09 0.06 0.09 0.15 0.09 0.03 0.01 0.00 0.00 0.00 0.00 0.00 0.00 0.00 0.00 0.00 0.00
0.00 0.00 0.00 0.00 0.00 0.00 0.00 0.00 0.00 0.00 0.00 0.00 0.00 0.00 0.00 0.00 0.00 0.00 0.00 0.00 0.00 0.00 0.00 0.00 0.00 0.00 0.03 0.05 0.00 0.00 0.00 0.01 0.05 0.06 0.07 0.07 0.02 0.00 0.00 0.00 0.00 0.00 0.00 0.00 0.00 0.00 0.00 0.00 0.00
0.00 0.00 0.00 0.00 0.00 0.00 0.00 0.00 0.00 0.00 0.00 0.00 0.00 0.00 0.00 0.00 0.00 0.00 0.00 0.00 0.00 0.00 0.00 0.00 0.00 0.01 0.08 0.10 0.02 0.00 0.02 0.03 0.07 0.10 0.06 0.05 0.01 0.00 0.00 0.00 0.00 0.00 0.00 0.00 0.00 0.00 0.00 0.00 0.00
MSLP
1011.09 1011.41 1011.67 1011.78 1013.13 1013.49 1013.04 1012.47 1011.88 1011.05 1010.22 1009.08 1008.67 1008.52 1008.19 1008.63 1009.31 1010.69 1010.13 1010.29 1010.59 1011.52 1011.98 1012.49 1012.58 1012.80 1013.27 1013.71 1014.05 1014.31 1014.59 1014.73 1014.84 1015.00 1015.18 1015.19 1015.32 1015.44 1015.61 1015.72 1015.75 1015.85 1015.97 1016.10 1016.18 1016.24 1016.23 1016.30 1016.37
1011.17 1011.47 1011.89 1012.51 1013.49 1013.72 1012.76 1011.67 1010.95 1009.66 1009.08 1008.50 1008.20 1007.84 1008.01 1008.60 1009.08 1009.99 1010.47 1010.48 1010.80 1011.27 1011.94 1012.41 1012.81 1013.12 1013.39 1013.77 1014.21 1014.46 1014.65 1014.86 1014.98 1015.18 1015.28 1015.36 1015.40 1015.46 1015.69 1015.80 1015.96 1016.04 1016.20 1016.30 1016.27 1016.38 1016.39 1016.47 1016.38
1011.23 1011.52 1012.61 1013.27 1014.08 1013.32 1011.91 1010.59 1009.16 1008.84 1008.89 1008.65 1008.40 1007.87 1008.09 1008.59 1009.27 1009.61 1009.73 1010.43 1011.04 1011.54 1012.00 1012.37 1012.80 1013.20 1013.54 1013.92 1014.27 1014.54 1014.73 1014.89 1015.09 1015.19 1015.33 1015.46 1015.48 1015.57 1015.68 1015.90 1016.01 1016.17 1016.17 1016.28 1016.32 1016.41 1016.42 1016.45 1016.50
1011.49 1012.17 1013.35 1013.56 1013.42 1012.04 1010.85 1009.00 1008.27 1008.47 1008.13 1008.11 1008.10 1008.36 1008.13 1007.98 1008.64 1009.29 1010.05 1010.76 1011.37 1011.96 1012.32 1012.47 1012.85 1013.31 1013.69 1014.01 1014.38 1014.56 1014.76 1014.90 1015.03 1015.15 1015.35 1015.52 1015.58 1015.67 1015.80 1015.92 1016.04 1016.16 1016.18 1016.28 1016.33 1016.42 1016.47 1016.59 1016.59
1011.67 1012.71 1013.78 1013.79 1012.73 1011.11 1009.81 1008.45 1007.63 1007.66 1007.62 1007.66 1007.92 1008.11 1008.35 1008.62 1008.57 1009.33 1010.31 1010.96 1011.26 1012.32 1012.50 1012.67 1012.99 1013.30 1013.71 1014.07 1014.40 1014.63 1014.80 1014.93 1015.00 1015.19 1015.34 1015.47 1015.62 1015.64 1015.89 1015.92 1016.00 1016.05 1016.11 1016.26 1016.33 1016.45 1016.45 1016.53 1016.54
1012.17 1013.21 1014.04 1013.88 1012.18 1010.67 1009.41 1007.69 1007.43 1007.13 1007.57 1007.44 1007.88 1008.27 1008.85 1009.42 1009.53 1010.01 1010.20 1010.78 1011.34 1011.84 1012.23 1012.90 1013.18 1013.45 1013.74 1014.03 1014.33 1014.56 1014.67 1014.85 1015.05 1015.21 1015.23 1015.32 1015.51 1015.58 1015.78 1015.81 1015.84 1015.94 1016.08 1016.15 1016.20 1016.29 1016.36 1016.44 1016.44
1012.17 1013.42 1013.68 1013.24 1011.68 1010.22 1009.04 1007.71 1007.76 1007.48 1007.86 1007.76 1008.02 1008.81 1009.41 1009.84 1009.96 1009.98 1010.47 1011.05 1011.50 1011.80 1012.30 1012.55 1013.03 1013.41 1013.68 1013.86 1014.07 1014.30 1014.55 1014.84 1014.99 1015.03 1015.11 1015.21 1015.34 1015.49 1015.60 1015.70 1015.81 1015.87 1016.03 1016.05 1016.08 1016.15 1016.28 1016.39 1016.46
1011.91 1012.98 1013.27 1012.71 1011.46 1010.00 1008.36 1007.70 1007.04 1007.09 1007.34 1007.72 1007.52 1008.15 1008.76 1009.22 1009.91 1010.43 1011.11 1011.61 1011.96 1012.40 1012.66 1012.53 1012.74 1012.96 1013.36 1013.65 1013.84 1014.14 1014.36 1014.55 1014.72 1014.85 1015.03 1015.14 1015.32 1015.37 1015.48 1015.58 1015.69 1015.67 1015.82 1015.93 1015.99 1016.11 1016.20 1016.30 1016.38
1011.65 1012.70 1012.90 1012.26 1011.02 1009.27 1007.71 1007.89 1007.39 1007.14 1007.50 1007.63 1007.51 1007.30 1007.37 1008.51 1009.95 1010.73 1011.31 1012.03 1012.49 1012.70 1012.76 1012.69 1012.72 1012.92 1013.09 1013.37 1013.62 1013.88 1014.05 1014.24 1014.46 1014.58 1014.76 1014.99 1015.21 1015.25 1015.36 1015.38 1015.52 1015.55 1015.68 1015.76 1015.82 1015.92 1016.08 1016.19 1016.21
1011.79 1012.54 1012.01 1010.89 1009.84 1009.08 1008.16 1007.87 1007.65 1007.29 1007.17 1007.27 1007.44 1007.33 1007.61 1008.79 1009.56 1010.37 1011.01 1011.62 1012.16 1012.43 1012.44 1012.58 1012.64 1012.79 1013.12 1013.12 1013.31 1013.51 1013.75 1014.03 1014.22 1014.41 1014.62 1014.74 1014.96 1015.18 1015.28 1015.33 1015.34 1015.38 1015.39 1015.51 1015.65 1015.77 1015.89 1015.95 1016.16
1011.42 1011.62 1010.88 1009.94 1009.30 1008.99 1008.17 1007.05 1007.19 1007.02 1007.27 1006.77 1006.71 1007.38 1007.98 1008.70 1009.41 1010.32 1010.75 1010.63 1010.67 1011.08 1012.08 1012.16 1012.43 1012.49 1012.71 1012.73 1013.02 1013.36 1013.63 1013.88 1014.03 1014.22 1014.34 1014.57 1014.92 1015.12 1015.21 1015.31 1015.20 1015.19 1015.22 1015.34 1015.54 1015.74 1015.86 1015.97 1016.02
1011.16 1010.42 1010.19 1009.46 1008.57 1008.62 1007.93 1006.83 1006.61 1006.64 1005.98 1005.47 1006.43 1006.74 1007.43 1008.27 1009.11 1009.25 1009.72 1010.15 1010.59 1010.83 1010.94 1011.47 1012.02 1012.38 1012.59 1012.63 1012.79 1013.00 1013.26 1013.52 1013.72 1013.89 1014.15 1014.53 1014.81 1014.95 1015.02 1015.04 1014.90 1015.00 1015.03 1015.15 1015.42 1015.70 1015.73 1015.82 1015.91
1010.64 1010.01 1009.52 1008.93 1008.34 1008.05 1007.66 1006.84 1006.52 1006.08 1005.50 1005.38 1006.41 1007.11 1007.60 1007.72 1008.01 1008.48 1008.41 1008.81 1009.52 1010.22 1010.55 1010.79 1011.36 1011.70 1011.98 1012.34 1012.37 1012.67 1012.90 1013.10 1013.28 1013.64 1013.81 1014.08 1014.42 1014.56 1014.58 1014.61 1014.59 1014.63 1014.84 1014.97 1015.25 1015.49 1015.66 1015.83 1015.89
1010.18 1009.85 1009.29 1008.40 1007.95 1007.50 1006.98 1006.10 1006.25 1005.20 1005.25 1005.78 1006.23 1006.78 1007.20 1007.26 1007.12 1007.91 1008.29 1008.34 1008.83 1009.29 1009.73 1010.03 1010.50 1010.92 1011.33 1011.64 1011.88 1012.11 1012.28 1012.47 1012.85 1013.06 1013.16 1013.41 1013.71 1013.98 1014.24 1014.33 1014.24 1014.31 1014.47 1014.67 1015.07 1015.45 1015.68 1015.85 1016.01
1010.21 1010.04 1009.07 1008.15 1007.65 1007.15 1006.59 1005.82 1005.52 1005.02 1005.67 1005.86 1006.13 1006.27 1006.57 1006.85 1007.22 1006.72 1006.71 1007.58 1007.89 1008.25 1008.74 1009.29 1009.82 1010.32 1010.74 1010.90 1011.21 1011.54 1011.62 1011.93 1012.22 1012.37 1012.66 1012.89 1013.21 1013.54 1013.77 1014.02 1014.07 1014.08 1014.38 1014.77 1015.21 1015.38 1015.69 1016.04 1016.04
1010.67 1010.50 1010.10 1008.41 1007.84 1006.79 1006.89 1005.92 1004.52 1005.01 1005.59 1006.12 1006.06 1006.00 1006.16 1006.13 1005.85 1005.86 1006.07 1006.52 1007.12 1007.71 1008.28 1008.60 1009.23 1009.89 1010.36 1010.57 1010.85 1011.12 1011.26 1011.43 1011.59 1011.89 1012.15 1012.35 1012.56 1012.92 1013.39 1013.86 1014.15 1014.20 1014.72 1015.05 1015.32 1015.71 1016.02 1016.12 1016.14
1011.72 1011.36 1010.68 1009.36 1008.01 1007.77 1007.49 1006.91 1005.42 1005.38 1005.51 1005.75 1005.91 1005.71 1005.53 1005.45 1005.88 1005.82 1005.53 1006.04 1006.18 1006.88 1007.50 1008.12 1008.71 1009.05 1009.56 1010.00 1010.40 1010.72 1010.92 1011.24 1011.05 1011.41 1011.71 1011.84 1012.04 1012.44 1012.93 1013.58 1014.30 1014.70 1015.17 1015.61 1015.63 1015.73 1015.85 1016.02 1016.13
1012.28 1011.75 1010.88 1010.09 1008.33 1007.96 1007.78 1007.16 1006.03 1005.13 1005.26 1005.77 1005.73 1005.57 1005.13 1005.28 1004.95 1004.84 1005.51 1005.29 1005.95 1006.17 1006.61 1007.21 1007.73 1008.29 1008.92 1009.72 1010.26 1010.55 1010.74 1010.82 1010.81 1010.93 1011.07 1011.32 1011.61 1011.96 1012.72 1013.14 1013.41 1014.70 1015.31 1015.45 1015.74 1015.66 1015.92 1016.07 1016.25
1012.00 1011.78 1011.22 1009.70 1008.59 1008.57 1007.96 1007.65 1006.54 1005.63 1005.37 1005.38 1005.46 1005.13 1004.86 1004.77 1003.89 1004.12 1004.94 1005.36 1005.55 1005.89 1006.35 1006.57 1007.34 1007.99 1008.89 1009.65 1010.25 1010.43 1010.53 1010.44 1010.59 1010.48 1010.28 1010.71 1011.14 1011.59 1012.40 1013.24 1014.39 1014.47 1014.98 1015.18 1015.30 1015.63 1016.01 1016.24 1016.31
1011.47 1011.35 1010.67 1009.52 1008.78 1008.54 1008.23 1007.85 1006.86 1006.28 1005.63 1005.12 1004.76 1004.67 1004.19 1003.91 1003.75 1004.11 1004.22 1004.97 1005.36 1005.23 1005.40 1006.15 1006.78 1007.48 1008.10 1008.68 1009.00 1009.66 1009.93 1010.10 1009.97 1009.90 1010.03 1010.65 1011.14 1011.82 1012.83 1013.37 1014.18 1014.71 1015.57 1015.47 1015.13 1015.54 1016.16 1016.45 1016.52
1010.55 1010.48 1009.94 1009.84 1009.24 1009.01 1008.91 1008.36 1007.61 1006.16 1005.43 1004.66 1003.93 1003.46 1003.34 1003.21 1003.21 1003.46 1003.94 1003.98 1004.75 1004.99 1005.39 1005.80 1006.52 1007.38 1007.62 1007.97 1008.85 1009.63 1009.84 1010.20 1010.27 1010.28 1010.44 1011.06 1011.24 1011.72 1011.97 1012.67 1013.53 1014.55 1015.51 1015.53 1015.18 1015.53 1016.01 1016.62 1017.02
1009.78 1009.12 1009.53 1009.78 1010.03 1010.38 1009.96 1010.10 1008.71 1007.22 1006.07 1004.97 1004.13 1003.54 1002.98 1002.65 1002.66 1002.77 1003.07 1003.70 1003.80 1004.60 1005.16 1005.77 1006.45 1006.69 1007.08 1007.72 1008.33 1008.64 1009.15 1009.93 1009.88 1009.97 1010.51 1010.11 1011.00 1011.81 1011.99 1012.52 1012.76 1013.89 1015.24 1015.23 1015.08 1015.57 1015.86 1016.36 1017.27
1009.21 1008.95 1009.77 1010.23 1010.89 1011.05 1010.82 1010.76 1009.16 1008.09 1006.91 1005.44 1004.44 1003.84 1003.56 1004.01 1002.17 1002.44 1002.76 1003.23 1004.09 1004.65 1004.86 1005.40 1006.14 1007.03 1007.13 1007.75 1007.78 1008.28 1009.08 1009.45 1009.90 1010.32 1010.39 1010.90 1011.52 1011.58 1012.05 1012.51 1013.24 1014.03 1014.64 1014.64 1015.00 1015.27 1015.62 1016.31 1016.82
1008.91 1009.54 1010.54 1011.64 1012.11 1012.39 1011.83 1011.50 1010.34 1008.97 1008.04 1006.50 1005.14 1003.92 1003.72 1003.61 1003.85 1002.93 1003.11 1003.29 1004.05 1004.74 1005.08 1005.46 1005.92 1006.60 1006.96 1007.48 1007.75 1008.19 1008.70 1009.30 1009.61 1010.24 1010.65 1011.42 1011.87 1012.45 1012.69 1013.02 1013.82 1013.87 1013.92 1014.43 1014.76 1015.08 1015.66 1016.10 1016.38
1009.47 1010.99 1012.37 1013.52 1013.95 1013.68 1012.10 1011.71 1010.63 1008.67 1007.74 1006.90 1005.96 1004.86 1004.40 1004.16 1004.31 1004.53 1003.66 1004.12 1004.11 1004.67 1005.28 1005.71 1006.00 1006.58 1006.74 1007.12 1007.47 1007.92 1008.22 1008.72 1009.20 1009.74 1010.26 1011.16 1011.94 1012.55 1012.79 1012.90 1013.41 1013.70 1013.98 1014.12 1014.50 1015.07 1015.42 1015.70 1016.06
1009.90 1011.30 1013.04 1014.26 1015.08 1013.98 1012.34 1011.32 1009.47 1008.15 1007.34 1006.84 1006.14 1005.33 1004.64 1004.53 1004.63 1004.92 1005.18 1005.04 1004.71 1005.09 1005.53 1005.79 1006.05 1006.41 1006.72 1007.20 1007.72 1008.03 1008.23 1008.92 1009.02 1009.77 1010.40 1011.09 1011.77 1011.72 1012.23 1012.87 1013.19 1013.48 1013.70 1013.99 1014.53 1014.91 1015.03 1015.26 1015.44
1010.47 1011.69 1012.86 1014.05 1014.96 1014.70 1012.97 1011.14 1009.35 1008.13 1007.30 1006.69 1006.08 1005.79 1005.52 1005.17 1005.18 1005.13 1005.27 1005.38 1005.49 1005.55 1005.51 1005.47 1005.88 1006.73 1007.32 1007.55 1007.74 1007.97 1008.36 1008.69 1009.14 1009.69 1010.41 1010.93 1011.63 1012.08 1012.49 1012.91 1013.22 1013.51 1013.66 1013.97 1014.39 1014.63 1014.74 1014.91 1014.88
1010.54 1011.85 1013.25 1014.61 1015.59 1015.27 1013.58 1012.28 1010.77 1009.24 1008.34 1007.82 1007.39 1007.14 1006.75 1006.10 1005.66 1005.40 1005.24 1005.34 1005.40 1005.65 1005.62 1006.19 1006.59 1007.12 1007.60 1008.18 1008.40 1008.54 1008.75 1009.03 1009.38 1009.59 1010.10 1010.76 1011.13 1011.69 1012.39 1012.88 1013.23 1013.39 1013.64 1013.91 1014.11 1014.28 1014.17 1014.47 1014.41
1011.82 1013.08 1014.16 1015.27 1015.83 1015.74 1014.71 1012.87 1011.15 1010.41 1009.53 1009.09 1008.84 1008.72 1008.10 1007.63 1006.97 1006.16 1005.78 1005.27 1005.41 1005.60 1006.30 1006.53 1007.16 1007.53 1007.90 1008.37 1008.61 1009.14 1009.76 1009.82 1010.46 1010.69 1011.20 1011.50 1011.81 1011.93 1012.46 1012.93 1013.11 1013.30 1013.45 1013.54 1013.70 1014.02 1013.88 1014.04 1014.04
1013.02 1014.23 1014.80 1016.02 1016.47 1016.34 1015.54 1012.71 1011.10 1010.94 1010.72 1010.36 1010.13 1009.51 1008.98 1008.43 1007.60 1007.09 1006.49 1006.12 1005.91 1006.10 1006.54 1007.00 1007.70 1007.80 1008.03 1008.46 1009.18 1009.65 1009.86 1010.28 1010.87 1011.83 1011.58 1011.66 1012.02 1012.31 1012.44 1012.64 1012.78 1012.91 1012.91 1013.04 1013.32 1013.52 1013.48 1013.70 1013.73
Thickness
5814 5813 5810 5800 5762 5752 5745 5760 5774 5773 5780 5805 5810 5799 5800 5803 5793 5764 5806 5809 5809 5800 5794 5788 5786 5783 5778 5773 5770 5768 5766 5764 5763 5762 5761 5761 5760 5760 5758 5757 5757 5755 5753 5751 5749 5748 5747 5744 5742
5812 5811 5802 5778 5746 5731 5743 5764 5768 5791 5803 5812 5813 5815 5807 5795 5807 5798 5796 5805 5803 5799 5793 5787 5781 5777 5775 5772 5767 5766 5764 5762 5762 5760 5759 5759 5760 5759 5758 5756 5754 5753 5750 5748 5748 5745 5743 5741 5740
5809 5808 5782 5757 5732 5740 5748 5775 5792 5799 5805 5804 5803 5817 5810 5799 5804 5803 5808 5803 5797 5792 5788 5784 5779 5775 5771 5768 5766 5764 5763 5762 5761 5759 5759 5758 5759 5758 5758 5755 5753 5750 5749 5747 5745 5743 5741 5738 5736
5800 5791 5775 5750 5749 5764 5780 5796 5804 5797 5809 5810 5809 5794 5813 5822 5811 5809 5806 5798 5791 5784 5782 5779 5776 5772 5768 5766 5763 5762 5761 5760 5760 5759 5758 5757 5758 5757 5755 5754 5751 5749 5747 5745 5742 5740 5738 5735 5733
5794 5776 5744 5742 5752 5773 5789 5803 5806 5801 5806 5807 5808 5796 5802 5813 5818 5811 5801 5796 5790 5778 5776 5774 5772 5770 5767 5763 5761 5759 5759 5759 5759 5758 5757 5757 5756 5756 5753 5752 5750 5748 5746 5743 5740 5737 5736 5734 5731
5772 5765 5733 5729 5755 5776 5787 5806 5805 5807 5806 5809 5802 5800 5802 5808 5805 5800 5799 5793 5788 5780 5774 5768 5768 5767 5764 5762 5759 5758 5758 5758 5757 5756 5756 5756 5755 5755 5753 5751 5750 5747 5744 5742 5740 5737 5734 5731 5730
5765 5748 5738 5743 5757 5772 5786 5809 5797 5801 5798 5800 5811 5790 5798 5798 5803 5803 5795 5791 5785 5779 5772 5770 5767 5765 5763 5762 5760 5759 5758 5757 5756 5757 5756 5756 5756 5755 5753 5750 5748 5746 5742 5741 5739 5736 5732 5729 5726
5768 5756 5750 5749 5754 5762 5796 5804 5811 5802 5796 5814 5819 5792 5791 5804 5805 5798 5789 5782 5779 5774 5770 5770 5769 5768 5765 5763 5762 5760 5759 5758 5757 5757 5756 5756 5754 5753 5751 5749 5747 5746 5742 5739 5736 5732 5729 5725 5722
5780 5741 5733 5751 5764 5781 5803 5789 5809 5815 5802 5808 5816 5817 5823 5817 5804 5791 5783 5775 5772 5770 5769 5769 5769 5767 5767 5765 5764 5762 5761 5760 5759 5758 5756 5755 5754 5753 5751 5750 5747 5744 5740 5737 5734 5730 5726 5723 5719
5760 5737 5751 5773 5785 5785 5793 5790 5801 5799 5801 5804 5810 5821 5823 5814 5803 5788 5781 5775 5772 5769 5770 5770 5771 5770 5767 5767 5766 5765 5763 5761 5760 5758 5757 5756 5754 5752 5750 5748 5745 5742 5740 5735 5732 5728 5725 5721 5717
5765 5750 5769 5783 5789 5789 5791 5799 5804 5798 5789 5803 5807 5811 5813 5811 5801 5789 5784 5786 5785 5782 5774 5774 5773 5772 5771 5770 5768 5765 5764 5762 5761 5759 5758 5756 5752 5750 5748 5746 5745 5742 5738 5734 5729 5725 5721 5717 5714
5765 5775 5778 5786 5798 5792 5793 5810 5809 5804 5810 5826 5819 5821 5816 5810 5803 5799 5793 5791 5787 5784 5784 5781 5778 5775 5772 5771 5770 5768 5766 5764 5763 5762 5760 5756 5752 5750 5748 5745 5744 5741 5737 5734 5728 5723 5719 5715 5709
5770 5782 5789 5791 5793 5794 5798 5801 5802 5807 5821 5827 5821 5814 5811 5812 5811 5808 5810 5806 5799 5790 5788 5788 5785 5781 5778 5775 5773 5771 5769 5767 5766 5763 5761 5758 5754 5752 5749 5745 5744 5741 5736 5732 5726 5720 5715 5709 5704
5780 5779 5781 5793 5796 5799 5800 5806 5807 5820 5823 5818 5816 5811 5812 5815 5818 5812 5811 5810 5805 5801 5797 5795 5792 5788 5783 5781 5779 5777 5773 5771 5769 5767 5765 5761 5757 5753 5749 5745 5743 5740 5735 5729 5722 5714 5709 5702 5695
5780 5770 5778 5793 5799 5794 5799 5794 5796 5818 5811 5808 5811 5814 5815 5814 5817 5822 5824 5817 5814 5811 5808 5802 5797 5794 5789 5787 5784 5781 5779 5776 5773 5769 5763 5759 5755 5752 5748 5744 5740 5736 5729 5721 5713 5707 5701 5694 5689
5767 5762 5747 5781 5788 5799 5797 5770 5810 5813 5804 5800 5807 5813 5815 5817 5824 5829 5830 5826 5822 5816 5809 5808 5804 5797 5792 5791 5788 5785 5781 5779 5775 5770 5766 5760 5756 5750 5744 5739 5733 5728 5719 5712 5706 5698 5691 5686 5680
5739 5734 5744 5758 5787 5782 5785 5771 5802 5806 5803 5800 5802 5810 5814 5819 5819 5824 5832 5828 5829 5822 5815 5809 5805 5802 5797 5794 5791 5787 5784 5780 5778 5773 5768 5763 5757 5750 5742 5733 5721 5714 5708 5701 5697 5690 5685 5680 5676
5732 5734 5740 5740 5773 5778 5771 5774 5793 5807 5809 5801 5800 5804 5813 5813 5820 5830 5826 5832 5829 5828 5823 5816 5811 5807 5802 5794 5788 5785 5782 5781 5778 5774 5770 5764 5756 5748 5739 5729 5722 5708 5699 5695 5688 5685 5678 5675 5670
5741 5736 5733 5755 5769 5768 5765 5769 5785 5800 5806 5800 5797 5803 5808 5812 5829 5834 5828 5826 5826 5826 5821 5819 5811 5805 5797 5790 5784 5780 5779 5777 5775 5775 5773 5765 5755 5745 5733 5720 5705 5701 5696 5691 5686 5679 5672 5666 5660
5737 5731 5732 5755 5768 5769 5762 5765 5783 5792 5797 5803 5806 5806 5809 5815 5824 5825 5827 5824 5822 5825 5825 5819 5813 5805 5799 5794 5789 5783 5778 5775 5775 5774 5769 5757 5746 5735 5720 5705 5691 5692 5683 5680 5681 5673 5663 5656 5649
5739 5736 5745 5744 5759 5761 5750 5753 5766 5788 5793 5801 5812 5818 5820 5820 5821 5823 5823 5827 5824 5824 5821 5817 5811 5802 5799 5795 5784 5776 5771 5766 5764 5761 5757 5745 5736 5724 5722 5709 5697 5687 5677 5672 5674 5667 5659 5648 5638
5736 5761 5757 5752 5738 5713 5742 5712 5740 5760 5775 5790 5803 5815 5817 5823 5825 5827 5829 5825 5827 5822 5819 5814 5807 5804 5798 5792 5782 5776 5766 5759 5760 5758 5747 5743 5731 5720 5714 5704 5694 5687 5671 5669 5670 5659 5652 5643 5630
5745 5766 5753 5749 5728 5728 5728 5710 5729 5751 5764 5783 5798 5809 5812 5809 5827 5826 5829 5828 5821 5819 5817 5814 5806 5796 5793 5786 5782 5774 5765 5760 5755 5749 5740 5733 5725 5715 5709 5698 5687 5679 5672 5670 5663 5655 5647 5635 5624
5768 5755 5735 5718 5709 5688 5718 5711 5714 5734 5750 5770 5791 5808 5810 5813 5811 5825 5825 5824 5818 5814 5812 5810 5803 5793 5785 5777 5774 5770 5763 5753 5750 5741 5735 5725 5715 5707 5699 5691 5680 5677 5673 5665 5657 5649 5638 5628 5618
5744 5715 5681 5686 5675 5686 5717 5707 5715 5746 5759 5770 5778 5793 5800 5805 5803 5803 5813 5811 5813 5809 5805 5800 5796 5787 5784 5777 5771 5765 5760 5751 5744 5739 5731 5718 5709 5700 5694 5689 5680 5673 5667 5661 5653 5641 5631 5622 5612
5741 5719 5679 5682 5670 5684 5710 5710 5730 5764 5766 5770 5780 5788 5801 5799 5801 5798 5798 5798 5804 5800 5797 5793 5788 5782 5778 5770 5761 5757 5753 5743 5739 5730 5720 5711 5703 5699 5691 5683 5676 5669 5661 5654 5643 5632 5625 5617 5606
5734 5711 5721 5688 5685 5679 5693 5721 5747 5760 5766 5771 5779 5784 5787 5793 5794 5795 5795 5793 5791 5791 5791 5790 5784 5773 5765 5759 5754 5750 5744 5737 5730 5722 5715 5710 5698 5690 5683 5675 5667 5659 5654 5646 5635 5626 5619 5610 5600
5737 5732 5697 5679 5680 5683 5687 5697 5704 5740 5750 5758 5764 5763 5772 5781 5785 5790 5791 5791 5788 5787 5784 5779 5773 5764 5757 5747 5743 5739 5733 5727 5721 5716 5709 5700 5694 5686 5676 5667 5659 5653 5646 5637 5629 5620 5613 5602 5593
5712 5696 5693 5685 5676 5665 5666 5686 5722 5733 5738 5747 5748 5749 5753 5761 5769 5779 5783 5787 5788 5783 5774 5771 5763 5754 5747 5740 5735 5728 5717 5714 5705 5698 5691 5686 5680 5675 5667 5660 5653 5646 5638 5631 5623 5612 5603 5594 5586
5713 5698 5685 5663 5672 5663 5659 5680 5734 5729 5729 5732 5733 5741 5748 5755 5763 5765 5774 5776 5776 5771 5766 5759 5747 5741 5736 5731 5721 5713 5708 5701 5695 5684 5685 5680 5674 5666 5661 5655 5648 5641 5635 5625 5615 5604 5594 5585 5577